Home   Weather   Geldern   Past weeks

Flag for Germany Past Weather in Geldern, North Rhine-Westphalia, Germany — Yesterday and Last 2 Weeks

Now
54 °F

Sunny.


Feels Like: 49 °F
Forecast: 37 / 50 °F
Wind: 15 mph from Southwest

Location: Niederrhein

Current Time: Apr 24, 2017 at 11:43:16 am

Latest Report: Apr 24, 2017 at 11:20 am


Visibility: 10 mi

Pressure: 30.01 "Hg

Humidity: 47%

Dew Point: 34 °F

Location of GeldernLocation

Past Weather in Geldern — Graph

°F

Geldern Temperature Yesterday

Maximum temperature yesterday: 52 °F (at 3:50 pm)
Minimum temperature yesterday: 37 °F (at 4:50 am)
Average temperature yesterday: 45 °F

High & Low Weather Summary for the Past Weeks

 TemperatureHumidityPressure
High73 °F (Apr 9, 4:50 pm)100% (Apr 11, 7:20 am)30.63 "Hg (Apr 11, 7:20 am)
Low27 °F (Apr 20, 6:50 am)23% (Apr 9, 5:50 pm)29.89 "Hg (Apr 15, 6:20 am)
Average48 °F66%30.21 "Hg
* Reported Apr 9 10:20 am — Apr 24 10:20 am, Geldern, Weather by CustomWeather, © 2017

Note: Actual official high and low records may vary slightly from our data, if they occured in-between our weather recording intervals... More about our weather records

Advertising

Geldern Weather History for the Previous 24 Hours

Scroll right to see more
 ConditionsComfort  
Time TempWeatherWind HumidityBarometerVisibility
10:20 am
Mon, Apr 24
48 °FSunny.12 mph58%30.01 "Hg10 mi
9:50 am46 °FPassing clouds.10 mph57%30.04 "HgN/A
9:20 am45 °FPassing clouds.10 mph66%30.04 "HgN/A
8:50 am45 °FSunny.9 mph66%30.07 "Hg10 mi
8:20 am43 °FSunny.8 mph71%30.07 "Hg10 mi
7:50 am41 °FSunny.7 mph81%30.07 "Hg10 mi
7:20 am37 °FClear.8 mph93%30.07 "Hg10 mi
6:50 am36 °FPassing clouds.8 mph93%30.07 "HgN/A
6:20 am36 °FClear.6 mph93%30.07 "Hg10 mi
5:50 am36 °FClear.6 mph93%30.09 "Hg10 mi
5:20 am36 °FClear.7 mph87%30.09 "Hg10 mi
4:50 am36 °FClear.6 mph93%30.12 "Hg10 mi
11:50 pm
Sun, Apr 23
37 °FClear.No wind93%30.21 "Hg10 mi
11:20 pm39 °FClear.No wind87%30.24 "Hg10 mi
10:50 pm41 °FClear.No wind81%30.24 "Hg10 mi
10:20 pm43 °FClear.No wind76%30.24 "Hg10 mi
9:50 pm45 °FClear.No wind71%30.24 "Hg10 mi
9:20 pm46 °FSunny.No wind66%30.24 "Hg10 mi
8:50 pm46 °FSunny.No wind66%30.24 "Hg10 mi
8:20 pm48 °FSunny.No wind62%30.24 "Hg10 mi
7:50 pm48 °FSunny.No wind62%30.27 "Hg10 mi
7:20 pm48 °FScattered clouds.2 mph62%30.27 "HgN/A
6:50 pm50 °FSunny.3 mph54%30.27 "Hg10 mi
6:20 pm50 °FPassing clouds.9 mph54%30.27 "HgN/A
5:50 pm50 °FPassing clouds.6 mph54%30.27 "HgN/A
5:20 pm50 °FPassing clouds.6 mph58%30.27 "HgN/A
4:50 pm50 °FScattered clouds.9 mph54%30.27 "HgN/A
4:20 pm50 °FScattered showers. Scattered clouds.9 mph54%30.27 "HgN/A
3:50 pm52 °FScattered showers. Scattered clouds.8 mph58%30.27 "HgN/A
3:20 pm48 °FPassing clouds.9 mph66%30.30 "HgN/A
2:50 pm45 °FPartly sunny.8 mph76%30.30 "HgN/A
2:20 pm46 °FSprinkles. Partly sunny.9 mph62%30.30 "HgN/A
1:50 pm48 °FBroken clouds.8 mph58%30.30 "HgN/A
1:20 pm48 °FBroken clouds.6 mph58%30.30 "HgN/A
12:50 pm48 °FBroken clouds.6 mph58%30.30 "HgN/A
12:20 pm48 °FPassing clouds.6 mph58%30.30 "HgN/A
11:50 am46 °FDrizzle. Partly sunny.9 mph62%30.30 "HgN/A
11:20 am46 °FPartly sunny.7 mph57%30.30 "HgN/A
Weather by CustomWeather, © 2017

See weather overviewHow to use our weather pages